Helicity
91 83 75 76 67 72 73 72 67 71 76 84 91 89 76 50 49 -14 16 25 40 46 15 -6 15 22 17 33 72 54 58 -66 -47 9 119 107 119 84 97 123 72 8 14 -39 14
96 93 84 79 75 71 77 73 70 72 79 89 99 111 94 84 25 18 58 85 53 27 9 5 -12 -1 54 43 62 74 28 -163 -52 8 15 29 40 73 56 25 11 15 65 42 43
97 98 92 88 89 76 77 84 73 72 75 84 97 113 128 102 85 36 54 112 53 39 -17 -33 -57 -13 51 61 35 38 -28 6 10 2 42 54 46 18 40 60 8 17 111 180 193
108 105 103 102 89 95 75 82 79 73 69 79 93 111 159 80 152 86 32 46 44 23 12 1 10 40 22 27 28 40 28 62 29 17 38 63 81 112 108 41 21 119 144 235 251
125 121 108 109 103 100 91 83 87 85 91 98 110 118 132 106 90 46 37 13 30 38 30 32 25 34 30 54 42 51 36 14 32 51 43 76 67 97 79 24 31 116 227 201 188
136 133 123 114 119 109 103 94 90 91 97 101 116 145 113 100 56 74 31 59 17 36 30 -2 2 29 43 65 86 36 20 12 34 28 86 96 96 105 68 14 70 96 147 194 192
140 142 133 126 124 126 120 108 99 94 95 107 123 113 133 37 105 94 27 21 32 29 8 -5 -8 52 75 77 44 49 48 23 31 64 37 95 97 82 28 4 179 224 232 219 205
134 143 135 143 135 144 133 117 110 108 104 104 120 114 84 55 121 46 22 44 42 15 37 -12 10 36 127 91 40 121 83 30 -28 28 11 60 27 32 14 79 195 204 235 294 249
232 151 160 140 155 162 151 145 131 116 124 137 139 114 59 110 122 21 108 64 58 64 63 40 118 111 149 117 71 71 29 22 22 1 29 109 74 52 11 111 218 217 303 405 371
410 200 176 157 148 194 187 173 150 171 148 159 179 208 144 95 91 97 49 58 93 91 77 108 182 159 132 190 139 85 40 31 59 45 111 174 105 13 43 178 115 180 424 473 406
205 491 212 199 174 222 302 337 288 261 246 271 179 354 182 213 149 104 62 144 143 149 150 150 225 179 147 170 76 30 31 58 -43 29 164 122 90 48 9 79 101 187 452 431 439
75 190 297 206 219 228 278 373 274 218 160 120 123 128 135 210 305 103 90 194 203 175 160 200 137 102 88 60 43 28 -4 -38 10 11 107 38 11 32 16 63 94 233 519 581 547
-27 222 227 228 250 273 248 228 218 227 177 138 119 173 110 184 284 251 164 146 209 186 194 182 135 98 63 19 26 8 41 39 61 46 48 64 73 83 89 95 183 205 509 501 549
-254 140 141 217 370 312 261 130 236 391 282 130 131 153 170 191 297 203 152 127 279 196 87 166 72 71 67 75 37 33 2 17 43 60 56 94 117 92 95 93 258 324 384 457 490
-318 -107 86 296 262 381 356 110 193 278 287 98 103 199 242 401 457 213 53 265 235 215 219 273 199 104 39 156 70 51 30 27 94 91 117 83 180 65 111 202 322 499 504 539 557
-224 -255 49 249 400 350 304 195 300 392 218 249 150 323 363 304 359 257 142 201 193 123 117 194 188 148 69 68 104 89 66 80 130 148 142 67 152 134 103 269 458 617 656 625 579
-88 -152 91 175 459 285 362 484 698 579 289 297 238 271 195 346 295 427 345 344 505 379 240 251 188 96 68 144 120 161 163 254 230 232 167 102 103 154 81 174 526 700 688 631 560
95 -161 55 121 265 521 693 728 776 435 611 169 269 120 205 347 248 103 317 296 282 379 338 221 124 79 147 174 183 217 229 347 230 213 103 92 151 155 113 278 514 721 678 599 501
70 66 27 150 256 646 717 755 606 321 304 685 171 232 245 172 275 171 130 330 371 391 388 208 184 148 158 285 244 174 195 194 191 141 187 234 303 318 301 485 625 643 586 551 459
180 160 -49 216 281 592 799 714 487 336 135 181 412 335 335 223 235 204 244 208 224 216 221 214 196 117 76 137 163 159 184 222 239 214 180 231 249 305 441 535 557 569 583 572 570
211 294 173 212 321 676 666 555 319 277 191 230 213 444 345 152 188 219 280 232 154 220 190 135 189 164 84 162 265 209 185 271 182 242 223 201 205 256 434 553 573 582 611 662 689
275 234 167 226 341 656 520 451 221 178 261 282 296 198 213 193 190 168 200 156 102 100 150 154 155 204 163 220 226 163 158 215 298 294 249 247 234 115 336 509 559 544 542 553 445
341 293 259 232 349 541 486 316 273 146 250 276 313 268 197 273 218 113 162 80 223 132 134 138 220 236 285 185 158 211 136 134 250 272 271 269 351 254 298 347 357 425 490 430 366
348 319 377 256 246 371 593 248 332 306 262 270 326 375 333 317 252 220 109 279 203 228 224 117 298 335 425 386 344 297 212 131 169 310 371 375 461 490 441 379 360 419 413 378 340
390 343 525 373 424 339 386 298 193 330 292 235 356 252 329 343 211 225 304 341 371 302 337 295 370 257 282 402 421 339 206 159 191 296 340 332 393 420 357 277 417 390 370 343 389
335 381 297 261 251 302 324 318 185 218 293 251 265 261 269 282 237 235 309 434 416 382 353 471 520 522 451 420 410 382 251 261 279 179 275 284 262 338 398 561 476 353 379 387 403
275 282 285 381 388 424 464 281 166 201 188 194 227 213 219 357 269 238 299 418 448 451 510 447 582 659 533 409 339 208 172 220 235 276 214 208 347 435 465 327 383 432 429 501 534
Wind_Speed
62 57 56 53 53 51 50 49 49 49 50 52 54 57 59 61 65 48 25 19 20 17 23 21 19 14 10 39 56 52 39 27 29 47 12 17 21 22 26 29 33 24 22 19 22
66 62 58 56 54 53 51 49 51 51 52 53 56 58 60 62 57 46 21 15 18 19 19 21 22 20 15 34 37 38 24 16 35 54 28 18 21 19 24 19 22 24 19 15 18
66 67 62 58 56 56 53 50 50 51 52 54 56 59 61 61 50 37 27 8 15 16 16 16 25 54 29 24 29 45 19 38 55 47 44 29 30 27 17 25 29 22 25 20 24
71 67 66 63 58 56 56 52 51 50 52 54 56 59 64 44 41 31 17 15 19 22 18 18 28 44 48 54 54 39 74 56 52 56 52 45 40 42 45 32 32 18 21 22 26
83 73 68 65 63 58 56 54 52 51 51 53 55 56 50 47 43 24 15 16 21 23 22 19 26 40 46 49 59 67 69 69 66 54 52 58 48 49 40 39 20 20 22 24 28
84 83 71 67 65 62 56 54 52 51 51 52 54 56 49 58 42 16 15 18 21 19 25 26 33 31 48 54 60 63 68 68 65 49 53 62 49 44 33 29 22 16 19 24 28
89 84 81 70 66 64 59 53 52 51 51 52 52 51 57 46 39 29 15 17 17 19 28 28 32 45 48 55 56 66 67 73 73 51 53 60 66 31 31 19 10 8 16 22 23
92 89 81 74 67 62 60 59 51 52 52 52 51 51 72 52 51 53 34 27 27 25 27 32 38 47 43 52 59 54 55 52 64 60 54 30 32 42 31 15 10 4 9 15 20
91 89 85 80 67 60 56 54 54 51 52 52 54 56 78 54 50 44 35 32 24 25 32 34 44 44 42 49 53 42 47 48 60 43 36 21 35 40 52 8 12 7 5 5 12
95 93 84 74 72 58 51 46 53 55 55 54 60 63 66 57 49 42 36 30 29 28 25 35 46 51 43 37 39 41 39 31 31 46 17 16 27 43 36 1 6 14 8 5 8
95 86 78 76 68 60 54 49 60 69 70 68 58 67 47 49 40 34 31 31 29 38 38 35 33 39 34 36 36 42 39 46 65 56 24 24 29 32 27 17 17 21 11 6 4
95 80 81 74 65 60 62 73 70 52 79 81 92 75 77 62 56 38 26 31 37 43 43 38 34 27 44 42 34 35 41 45 60 44 29 29 24 29 26 27 25 20 14 10 1
82 84 80 74 68 64 71 70 46 58 76 77 74 84 75 55 64 49 32 35 40 43 41 42 41 31 34 34 40 39 34 38 46 58 50 45 49 46 51 52 39 15 16 12 6
84 84 86 55 66 70 74 64 47 51 81 91 77 83 71 64 79 49 38 33 52 49 48 50 39 36 30 33 27 39 44 50 52 51 48 47 57 52 49 37 27 13 16 12 7
92 89 81 70 59 77 68 64 57 52 99 71 68 53 56 66 49 55 41 51 51 47 46 55 36 42 40 35 29 39 50 51 43 45 47 48 45 44 37 31 16 17 14 10 6
95 89 80 86 72 62 54 52 47 72 105 71 48 54 53 61 58 44 50 52 55 60 79 75 64 50 45 55 36 38 49 45 43 45 52 37 43 45 34 28 17 13 10 9 4
96 90 85 78 80 59 54 54 69 103 60 70 52 47 51 56 60 56 49 54 54 55 61 68 65 70 60 57 43 32 35 43 51 50 51 42 45 40 46 24 25 23 15 8 2
94 89 85 80 61 72 67 68 86 98 84 44 49 45 57 48 60 59 59 55 54 47 55 49 59 44 39 38 36 36 34 36 43 45 51 28 40 41 33 14 16 14 10 5 5
89 86 88 81 67 78 87 103 101 87 83 70 43 53 59 58 56 52 63 62 53 54 50 42 50 41 47 43 35 37 41 30 46 50 49 34 32 37 14 5 11 12 8 5 6
93 87 92 80 71 81 94 106 102 81 59 75 65 60 63 59 54 47 58 65 53 48 50 56 61 45 37 43 44 43 35 37 40 44 48 43 44 35 16 11 12 12 10 8 14
94 95 95 79 78 89 109 118 93 78 72 63 88 72 65 58 58 57 63 61 50 45 47 54 60 50 35 42 39 38 40 39 37 39 42 48 42 38 25 21 18 13 10 14 18
92 114 86 89 97 99 113 110 91 91 83 71 65 72 71 57 63 68 64 47 49 46 51 47 48 54 46 44 39 44 47 43 39 42 51 45 43 25 16 15 12 12 16 18 25
98 102 84 97 107 108 99 99 83 86 86 74 69 66 69 62 65 61 60 55 58 39 45 45 47 47 42 42 47 42 39 47 51 49 50 47 50 22 15 17 15 17 19 23 27
88 108 95 107 101 109 106 101 100 80 75 77 71 63 64 66 62 62 67 49 52 40 41 45 44 51 51 55 44 48 50 52 51 56 59 57 43 29 23 22 21 20 21 26 32
90 101 91 106 110 109 110 91 97 83 79 74 80 76 68 71 74 71 55 49 41 39 40 44 55 47 48 48 46 52 56 55 59 58 60 58 51 37 29 27 22 21 27 30 33
97 88 90 82 115 112 106 104 93 89 79 84 84 74 64 69 71 66 55 54 56 48 46 44 51 51 59 57 50 65 68 69 72 73 69 57 55 37 32 27 25 26 26 33 41
76 68 72 102 106 116 118 110 99 81 77 77 73 66 74 62 48 46 44 46 46 50 51 47 48 57 73 61 65 88 81 80 77 68 59 67 54 26 28 36 33 29 32 38 44
Wind_Direction
260 261 262 263 265 267 270 273 277 282 286 289 292 293 295 298 296 317 339 4 18 24 34 32 40 38 37 291 269 283 303 309 320 330 14 38 5 356 346 341 335 357 32 76 85
259 259 259 261 262 265 268 271 275 279 284 288 291 293 295 299 304 311 327 350 6 22 21 10 5 4 338 310 299 294 303 294 305 313 358 18 10 8 357 14 2 335 351 72 74
257 257 258 258 260 262 266 269 273 278 282 286 289 292 295 301 306 315 339 356 355 358 2 13 343 301 315 314 285 287 199 287 290 307 318 335 331 347 357 345 334 348 348 344 340
255 255 256 256 258 260 263 267 271 276 280 284 288 291 291 301 296 321 356 8 1 1 7 360 339 314 302 287 281 294 257 280 292 298 301 308 316 309 305 331 334 5 2 353 340
252 253 253 254 255 257 260 264 268 273 279 284 288 293 295 286 287 317 337 345 353 357 355 351 337 319 302 293 281 274 273 275 282 293 299 293 301 302 305 311 355 358 344 336 334
251 250 252 252 253 255 258 261 266 271 277 282 287 291 286 279 292 293 301 314 325 342 342 335 329 325 307 290 285 284 280 281 285 297 296 287 297 301 306 304 317 349 342 337 332
247 248 248 250 251 252 255 259 264 269 274 280 286 288 279 272 291 295 295 294 307 321 325 332 331 313 308 299 289 280 284 277 274 296 293 287 281 298 300 299 291 347 340 335 341
246 245 245 247 249 249 253 256 262 267 273 278 284 285 274 282 280 279 286 293 301 309 319 324 331 315 302 298 289 293 290 294 281 287 289 290 291 296 294 254 247 294 327 341 343
252 243 243 242 245 247 250 255 259 267 271 277 279 276 275 286 271 271 268 277 293 306 318 324 320 311 306 293 291 293 293 295 292 292 290 271 290 300 298 276 207 263 279 330 359
255 243 240 238 239 241 245 251 260 265 268 272 271 275 276 281 275 268 261 260 273 299 305 308 304 297 298 290 281 286 288 291 298 311 290 276 283 300 308 198 247 293 236 263 325
252 252 237 236 234 232 234 248 254 259 255 254 266 261 281 296 288 270 251 260 271 281 284 300 295 292 285 279 278 283 284 291 290 302 288 291 290 300 290 277 286 297 211 222 316
248 253 242 230 227 222 230 243 246 269 264 255 257 262 267 281 283 264 242 252 256 263 279 280 274 277 289 285 273 272 279 286 287 296 303 298 289 290 293 292 285 277 221 203 256
252 251 252 228 221 222 228 235 266 267 264 263 255 259 258 270 267 264 246 252 258 263 267 264 288 283 283 280 274 271 264 279 288 287 291 301 297 295 289 289 293 260 201 193 197
247 245 247 219 219 223 227 226 253 274 265 263 254 262 254 255 264 257 252 244 271 264 267 274 279 281 261 272 263 271 279 283 287 290 289 294 293 292 295 282 270 224 200 205 206
243 244 247 218 231 223 224 225 251 266 258 264 247 258 245 234 261 240 242 260 255 263 263 272 276 269 266 272 267 276 280 289 290 290 290 288 293 293 291 294 250 216 211 212 181
240 241 243 228 233 225 210 218 233 246 252 261 251 243 240 235 244 265 235 254 260 264 266 273 278 276 272 277 263 279 284 285 291 293 284 280 287 294 280 267 248 219 199 174 166
236 237 236 232 233 212 195 206 226 238 248 254 243 231 234 243 235 253 238 236 243 254 257 271 269 266 270 274 271 252 273 282 282 279 284 290 283 264 291 250 207 195 194 191 215
237 235 236 236 225 204 198 208 235 243 242 257 243 230 242 248 245 230 249 241 234 247 277 254 263 235 260 247 254 256 244 267 282 286 294 276 292 293 302 214 183 182 186 201 273
233 234 235 233 214 201 201 221 235 241 238 250 240 236 242 242 256 239 233 240 243 231 251 269 266 272 243 259 240 255 244 240 281 290 296 292 300 309 327 186 178 182 191 240 290
229 231 233 227 208 202 213 229 236 240 244 227 240 245 243 241 249 242 248 251 243 238 227 259 279 265 256 245 243 246 260 249 260 280 277 284 280 283 259 224 205 214 231 263 297
226 231 228 221 208 209 221 229 234 240 242 241 237 246 252 239 244 248 256 260 229 239 232 229 266 284 235 230 231 232 244 257 263 266 282 290 285 293 234 222 219 230 244 279 297
225 228 222 214 216 216 224 227 235 235 240 246 254 239 248 243 249 252 246 252 262 232 221 221 256 264 261 262 248 240 243 247 258 274 268 288 298 312 228 218 221 245 274 289 299
225 227 225 213 220 218 225 231 237 236 236 238 250 241 245 252 261 241 250 252 275 236 236 214 253 255 264 254 253 247 238 250 263 275 272 271 289 286 231 232 243 262 277 292 303
223 222 228 221 224 222 219 229 233 237 238 237 246 248 246 250 259 266 247 259 263 253 247 213 250 250 254 266 251 250 253 255 257 262 270 271 284 271 259 257 264 272 285 296 303
223 226 227 217 216 221 219 228 227 234 240 236 241 245 244 247 250 255 254 254 258 265 255 239 243 243 254 275 268 264 261 262 260 265 266 269 269 260 255 262 266 280 290 297 306
222 225 228 227 220 220 220 226 226 230 232 234 241 240 242 247 248 251 253 246 251 256 257 259 252 258 259 266 274 270 271 274 274 269 273 279 270 248 253 265 273 279 290 299 307
226 228 233 226 222 219 223 223 228 227 238 239 233 239 242 248 251 255 258 258 260 256 252 257 257 261 262 268 273 271 265 267 271 276 274 270 280 263 244 261 266 281 294 303 310